2022/04/17 23:30:17+0000,-33.25,-45.77,-32.01,-47.94,-53.14,-54.81
2022/04/17 23:31:15+0000,-31.31,-45.91,-31.64,-47.44,-53.70,-54.84
2022/04/17 23:32:07+0000,-32.54,-46.16,-31.38,-47.50,-52.80,-54.23
2022/04/17 23:32:59+0000,-33.26,-45.91,-31.47,-47.46,-53.23,-54.57
2022/04/17 23:33:51+0000,-32.86,-47.06,-31.53,-47.30,-52.81,-54.39
2022/04/17 23:34:43+0000,-33.52,-46.54,-31.45,-46.35,-53.20,-54.05
2022/04/17 23:35:35+0000,-32.79,-46.28,-31.34,-47.71,-52.79,-54.23
2022/04/17 23:36:27+0000,-33.85,-43.66,-31.32,-47.14,-52.55,-54.75
2022/04/17 23:37:19+0000,-33.94,-46.43,-31.45,-48.21,-52.94,-54.33
2022/04/17 23:38:11+0000,-32.03,-46.83,-31.63,-47.71,-53.43,-54.34
2022/04/17 23:39:03+0000,-31.08,-47.48,-31.80,-48.16,-53.77,-54.51
2022/04/17 23:39:56+0000,-33.19,-46.86,-31.99,-46.51,-53.14,-54.39
2022/04/17 23:40:48+0000,-32.97,-47.55,-31.76,-47.49,-53.64,-54.04
2022/04/17 23:41:49+0000,-31.96,-46.89,-31.80,-47.87,-53.37,-54.59
2022/04/17 23:42:41+0000,-33.13,-45.20,-31.98,-47.56,-53.27,-54.25
2022/04/17 23:43:33+0000,-30.88,-46.51,-31.83,-47.60,-53.49,-54.48
2022/04/17 23:44:25+0000,-33.98,-45.58,-31.32,-46.35,-53.22,-55.52
2022/04/17 23:45:17+0000,-33.40,-48.24,-31.42,-47.25,-53.30,-54.63
2022/04/17 23:46:09+0000,-31.10,-47.89,-31.45,-46.87,-52.65,-54.48
2022/04/17 23:47:01+0000,-32.63,-48.81,-31.86,-46.77,-51.84,-54.19
2022/04/17 23:47:53+0000,-33.82,-48.21,-31.88,-47.26,-53.06,-54.32
2022/04/17 23:48:45+0000,-32.57,-48.76,-32.14,-46.76,-53.19,-54.82
2022/04/17 23:49:37+0000,-34.54,-47.09,-31.91,-48.42,-53.25,-54.48
2022/04/17 23:50:30+0000,-31.55,-47.27,-31.66,-47.22,-53.84,-54.54
2022/04/17 23:51:30+0000,-32.62,-48.93,-31.73,-48.02,-53.71,-54.56
2022/04/17 23:52:22+0000,-32.45,-47.07,-32.27,-47.65,-53.29,-54.49
2022/04/17 23:53:14+0000,-33.73,-46.15,-32.21,-47.10,-53.36,-55.01
2022/04/17 23:54:06+0000,-33.51,-46.42,-31.79,-47.35,-52.34,-54.24
2022/04/17 23:54:58+0000,-34.25,-46.82,-32.14,-48.44,-52.53,-54.45
2022/04/17 23:55:50+0000,-33.96,-46.75,-31.76,-47.77,-53.62,-54.58
2022/04/17 23:56:42+0000,-32.95,-45.63,-31.88,-47.73,-53.36,-54.86
2022/04/17 23:57:34+0000,-34.64,-47.36,-32.11,-48.42,-52.73,-54.40
2022/04/17 23:58:26+0000,-32.94,-46.44,-32.05,-47.77,-53.15,-54.01
2022/04/17 23:59:19+0000,-33.49,-47.39,-31.74,-47.88,-53.33,-54.56
2022/04/18 00:00:11+0000,-33.32,-47.06,-31.69,-47.84,-53.49,-54.69
2022/04/18 00:01:18+0000,-33.06,-44.31,-32.58,-49.01,-53.12,-54.12
2022/04/18 00:02:10+0000,-32.75,-47.00,-32.05,-48.34,-52.74,-55.04
2022/04/18 00:03:02+0000,-31.26,-47.34,-31.63,-48.56,-54.44,-54.85
2022/04/18 00:03:54+0000,-33.14,-47.00,-31.86,-46.71,-53.85,-54.95
2022/04/18 00:04:46+0000,-32.76,-45.68,-32.11,-47.77,-53.99,-54.64
2022/04/18 00:05:38+0000,-32.09,-46.09,-32.00,-48.33,-54.20,-55.08
2022/04/18 00:06:30+0000,-33.26,-46.03,-32.28,-47.88,-53.15,-54.46
2022/04/18 00:07:22+0000,-32.61,-47.12,-32.06,-46.19,-53.49,-54.71
2022/04/18 00:08:14+0000,-33.05,-46.65,-30.34,-45.88,-52.97,-54.25
2022/04/18 00:09:06+0000,-31.74,-45.79,-31.52,-45.61,-53.02,-54.51
2022/04/18 00:09:59+0000,-32.75,-46.07,-31.05,-45.20,-53.65,-54.57
2022/04/18 00:10:51+0000,-32.04,-47.16,-30.78,-45.38,-53.55,-54.62
2022/04/18 00:11:51+0000,-33.53,-46.43,-31.37,-46.18,-54.00,-54.70
2022/04/18 00:12:43+0000,-35.20,-46.69,-31.47,-47.42,-53.86,-54.52
2022/04/18 00:13:35+0000,-32.54,-45.54,-31.11,-47.63,-53.62,-54.70
2022/04/18 00:14:27+0000,-31.92,-45.44,-31.32,-45.11,-54.26,-54.68
2022/04/18 00:15:20+0000,-33.61,-47.25,-31.26,-48.11,-53.63,-54.18
2022/04/18 00:16:12+0000,-31.82,-45.97,-31.03,-47.83,-53.87,-54.69
2022/04/18 00:17:04+0000,-33.77,-47.04,-31.04,-48.90,-53.87,-54.25
2022/04/18 00:17:56+0000,-33.77,-45.31,-30.61,-46.81,-53.30,-54.96
2022/04/18 00:18:48+0000,-32.36,-47.05,-31.35,-47.51,-53.42,-54.40
2022/04/18 00:19:40+0000,-34.28,-47.51,-31.02,-47.50,-54.01,-54.47
2022/04/18 00:20:32+0000,-32.92,-45.69,-30.71,-13.83,-53.55,-54.73
2022/04/18 00:21:34+0000,-34.00,-45.73,-31.30,-48.32,-53.84,-55.10
2022/04/18 00:22:26+0000,-32.87,-46.09,-31.20,-47.61,-54.32,-54.10
2022/04/18 00:23:18+0000,-33.01,-45.11,-31.18,-48.09,-54.74,-54.68
2022/04/18 00:24:10+0000,-34.59,-46.71,-31.24,-47.28,-53.71,-54.39
2022/04/18 00:25:02+0000,-34.52,-45.86,-31.72,-46.64,-54.32,-54.93
2022/04/18 00:25:54+0000,-33.92,-45.22,-32.04,-45.93,-53.76,-55.19
2022/04/18 00:26:46+0000,-34.71,-47.88,-31.24,-46.88,-52.97,-54.26
2022/04/18 00:27:38+0000,-33.10,-46.41,-31.34,-46.78,-54.31,-54.95
2022/04/18 00:28:30+0000,-33.74,-46.76,-31.48,-45.43,-53.72,-54.83
2022/04/18 00:29:22+0000,-34.13,-45.13,-31.46,-45.34,-54.07,-55.70
2022/04/18 00:30:14+0000,-32.91,-45.95,-31.64,-47.62,-53.81,-54.68
2022/04/18 00:31:13+0000,-33.98,-46.46,-31.21,-45.77,-53.68,-55.01
2022/04/18 00:32:05+0000,-34.25,-46.68,-31.69,-48.15,-53.43,-54.51
2022/04/18 00:32:57+0000,-33.03,-45.98,-31.46,-45.75,-53.07,-54.82
2022/04/18 00:33:49+0000,-32.97,-45.64,-32.04,-48.38,-53.01,-54.88
2022/04/18 00:34:41+0000,-32.02,-46.47,-31.24,-46.13,-53.62,-55.13
2022/04/18 00:35:33+0000,-34.64,-47.44,-31.62,-46.98,-53.57,-55.18
2022/04/18 00:36:25+0000,-34.58,-45.82,-31.74,-46.16,-53.54,-54.71
2022/04/18 00:37:17+0000,-33.36,-46.23,-31.87,-47.78,-53.76,-54.60
2022/04/18 00:38:09+0000,-35.30,-47.84,-32.52,-47.64,-53.04,-54.56
2022/04/18 00:39:01+0000,-33.08,-47.58,-31.55,-46.37,-53.55,-54.57
2022/04/18 00:39:53+0000,-33.57,-47.80,-31.49,-47.35,-53.28,-55.22
2022/04/18 00:40:45+0000,-33.81,-48.19,-31.56,-47.41,-53.30,-54.78
2022/04/18 00:41:51+0000,-31.83,-46.32,-32.17,-46.10,-54.21,-54.70
2022/04/18 00:42:43+0000,-32.58,-47.41,-31.42,-47.16,-54.18,-54.37
2022/04/18 00:43:35+0000,-31.88,-46.17,-31.88,-49.07,-54.14,-54.62
2022/04/18 00:44:27+0000,-32.47,-45.94,-31.20,-47.59,-54.32,-54.95
2022/04/18 00:45:19+0000,-33.35,-43.93,-31.11,-48.30,-53.78,-54.68
2022/04/18 00:46:11+0000,-34.20,-46.88,-31.79,-47.83,-53.38,-54.88
2022/04/18 00:47:03+0000,-33.36,-45.72,-31.65,-46.83,-52.71,-54.93
2022/04/18 00:47:55+0000,-34.67,-45.50,-31.04,-46.75,-53.15,-54.72
2022/04/18 00:48:47+0000,-33.63,-46.83,-31.71,-47.22,-54.03,-54.70
2022/04/18 00:49:39+0000,-34.89,-47.44,-32.10,-47.11,-53.74,-54.97
2022/04/18 00:50:32+0000,-31.55,-47.11,-31.31,-46.64,-53.53,-54.50
2022/04/18 00:51:31+0000,-35.34,-46.57,-32.08,-46.14,-54.24,-54.62
2022/04/18 00:52:23+0000,-33.31,-47.14,-31.42,-46.62,-53.72,-54.35
2022/04/18 00:53:15+0000,-33.97,-45.15,-31.81,-47.76,-54.02,-55.06
2022/04/18 00:54:07+0000,-31.91,-47.26,-31.69,-48.34,-53.70,-55.00
2022/04/18 00:54:59+0000,-31.33,-45.41,-31.79,-47.40,-53.93,-54.83
2022/04/18 00:55:51+0000,-32.72,-45.71,-31.66,-48.91,-52.73,-55.26
2022/04/18 00:56:43+0000,-31.65,-48.62,-31.66,-47.81,-53.36,-55.14
2022/04/18 00:57:35+0000,-33.09,-46.32,-32.24,-48.99,-53.28,-55.31
2022/04/18 00:58:27+0000,-34.21,-47.79,-31.60,-46.49,-53.80,-54.47
2022/04/18 00:59:19+0000,-34.86,-47.24,-31.85,-48.30,-53.33,-54.60
2022/04/18 01:00:11+0000,-31.96,-45.75,-31.06,-47.31,-54.04,-54.54
2022/04/18 01:01:12+0000,-34.02,-48.08,-31.75,-47.89,-54.09,-54.68
2022/04/18 01:02:04+0000,-32.94,-47.61,-31.13,-48.34,-53.88,-54.63
2022/04/18 01:02:56+0000,-33.88,-47.49,-31.44,-46.12,-53.59,-55.01
2022/04/18 01:03:48+0000,-32.75,-47.10,-30.58,-48.48,-54.07,-55.06
2022/04/18 01:04:40+0000,-33.21,-45.37,-31.69,-47.89,-53.92,-55.47
2022/04/18 01:05:32+0000,-32.84,-46.43,-31.73,-48.12,-52.65,-54.86
2022/04/18 01:06:24+0000,-34.46,-46.12,-31.62,-46.05,-52.93,-54.65
2022/04/18 01:07:16+0000,-35.10,-46.63,-31.95,-47.90,-54.01,-55.03
2022/04/18 01:08:08+0000,-34.86,-45.90,-31.49,-47.65,-54.17,-54.88
2022/04/18 01:09:00+0000,-34.70,-48.03,-31.39,-46.64,-53.24,-54.44
2022/04/18 01:09:53+0000,-34.17,-48.03,-31.53,-46.34,-54.32,-55.08
2022/04/18 01:10:45+0000,-32.98,-47.34,-31.57,-47.20,-53.68,-55.56
2022/04/18 01:11:46+0000,-34.25,-46.92,-31.45,-46.72,-53.22,-54.86
2022/04/18 01:12:38+0000,-34.06,-46.99,-31.67,-47.52,-54.15,-54.55
2022/04/18 01:13:30+0000,-32.60,-45.96,-31.20,-46.10,-53.79,-55.07
2022/04/18 01:14:22+0000,-32.98,-44.97,-31.73,-46.25,-53.53,-54.68
2022/04/18 01:15:14+0000,-33.77,-46.19,-31.95,-47.82,-53.06,-54.38
2022/04/18 01:16:06+0000,-33.52,-46.18,-31.69,-47.34,-53.09,-54.61
2022/04/18 01:16:58+0000,-34.70,-46.98,-31.45,-46.49,-53.14,-54.60
2022/04/18 01:17:50+0000,-32.67,-47.36,-31.38,-47.39,-53.36,-54.74
2022/04/18 01:18:42+0000,-32.80,-45.59,-31.84,-47.26,-53.46,-54.64
2022/04/18 01:19:34+0000,-33.55,-47.22,-31.23,-48.26,-54.00,-54.64
2022/04/18 01:20:26+0000,-33.92,-47.19,-30.61,-47.61,-53.58,-54.27
2022/04/18 01:21:25+0000,-32.57,-48.24,-31.48,-46.71,-53.87,-54.75
2022/04/18 01:22:17+0000,-31.78,-47.38,-31.68,-48.30,-53.09,-54.98
2022/04/18 01:23:09+0000,-32.34,-47.21,-31.36,-47.87,-53.99,-54.77
2022/04/18 01:24:01+0000,-32.42,-46.40,-31.54,-46.00,-53.51,-54.52
2022/04/18 01:24:53+0000,-34.00,-46.75,-31.69,-45.67,-53.21,-54.56
2022/04/18 01:25:45+0000,-33.32,-47.70,-30.99,-47.58,-53.22,-54.59
2022/04/18 01:26:37+0000,-32.97,-47.07,-32.08,-48.03,-53.81,-54.81
2022/04/18 01:27:29+0000,-33.31,-46.51,-31.46,-46.23,-53.77,-54.56
2022/04/18 01:28:21+0000,-33.98,-46.88,-31.21,-45.94,-53.63,-54.84
2022/04/18 01:29:13+0000,-33.85,-47.52,-31.89,-46.51,-54.16,-55.04
2022/04/18 01:30:05+0000,-33.73,-47.83,-31.65,-46.50,-53.18,-54.80
2022/04/18 01:31:04+0000,-32.00,-46.64,-30.97,-47.51,-52.79,-54.74
2022/04/18 01:31:56+0000,-31.04,-47.09,-31.83,-46.72,-53.44,-54.24
2022/04/18 01:32:48+0000,-31.16,-45.39,-31.57,-46.96,-53.59,-54.73
2022/04/18 01:33:40+0000,-33.66,-47.21,-31.76,-46.93,-53.78,-54.60
2022/04/18 01:34:32+0000,-32.06,-47.15,-31.08,-46.78,-53.40,-53.86
2022/04/18 01:35:24+0000,-33.25,-45.30,-31.55,-46.44,-53.80,-54.36
2022/04/18 01:36:16+0000,-32.63,-46.76,-31.91,-47.15,-53.47,-54.85
2022/04/18 01:37:08+0000,-32.96,-47.34,-31.52,-47.12,-53.55,-55.02
2022/04/18 01:38:00+0000,-33.33,-47.57,-31.65,-46.04,-54.17,-54.44
2022/04/18 01:38:52+0000,-32.83,-46.58,-31.32,-44.74,-53.39,-55.17
2022/04/18 01:39:44+0000,-32.77,-47.14,-31.31,-47.08,-53.09,-54.91
2022/04/18 01:40:36+0000,-32.64,-45.00,-31.36,-47.44,-52.38,-54.55
2022/04/18 01:41:40+0000,-32.09,-45.63,-31.74,-45.91,-53.67,-54.85
2022/04/18 01:42:32+0000,-31.98,-47.31,-31.94,-46.62,-53.92,-54.59
2022/04/18 01:43:24+0000,-32.90,-46.93,-31.63,-46.49,-53.82,-54.68
2022/04/18 01:44:16+0000,-32.67,-40.27,-31.50,-47.62,-53.48,-54.97
2022/04/18 01:45:08+0000,-31.79,-45.39,-31.43,-47.10,-53.76,-54.74
2022/04/18 01:46:00+0000,-32.26,-46.01,-31.74,-46.44,-54.40,-54.70
2022/04/18 01:46:52+0000,-32.53,-46.31,-31.73,-46.50,-53.79,-54.52
2022/04/18 01:47:44+0000,-34.45,-47.21,-31.95,-46.04,-53.13,-54.05
2022/04/18 01:48:36+0000,-31.78,-44.49,-31.21,-47.46,-53.66,-54.51
2022/04/18 01:49:28+0000,-32.06,-44.84,-32.02,-46.29,-52.90,-54.34
2022/04/18 01:50:20+0000,-31.87,-47.67,-31.35,-47.52,-53.05,-54.70
2022/04/18 01:51:21+0000,-33.33,-48.31,-31.70,-47.36,-53.55,-54.51
2022/04/18 01:52:13+0000,-32.50,-46.43,-31.52,-46.92,-53.19,-54.27
2022/04/18 01:53:06+0000,-33.61,-45.53,-31.68,-47.77,-53.49,-55.29
2022/04/18 01:53:58+0000,-32.97,-47.15,-31.81,-47.86,-53.71,-54.52
2022/04/18 01:54:50+0000,-32.24,-47.08,-31.99,-47.93,-53.78,-54.33
2022/04/18 01:55:42+0000,-34.17,-46.34,-32.22,-47.24,-53.24,-53.91
2022/04/18 01:56:34+0000,-31.98,-45.70,-31.81,-47.19,-54.53,-54.58
2022/04/18 01:57:26+0000,-33.42,-47.13,-32.24,-47.49,-52.93,-55.06
2022/04/18 01:58:18+0000,-32.26,-46.13,-31.94,-47.19,-53.01,-55.27
2022/04/18 01:59:10+0000,-32.63,-45.49,-32.25,-47.41,-53.43,-54.43
2022/04/18 02:00:02+0000,-33.36,-46.17,-32.17,-46.43,-54.10,-55.14
2022/04/18 02:01:01+0000,-34.98,-45.49,-31.86,-46.75,-53.52,-54.72
2022/04/18 02:01:53+0000,-32.77,-47.66,-31.61,-46.35,-53.83,-54.64
2022/04/18 02:02:45+0000,-32.17,-45.47,-31.65,-46.44,-53.62,-54.70
2022/04/18 02:03:37+0000,-32.62,-47.72,-31.37,-46.57,-53.36,-54.85
2022/04/18 02:04:29+0000,-32.67,-46.71,-31.54,-47.75,-53.69,-55.02
2022/04/18 02:05:21+0000,-32.45,-47.64,-31.82,-47.37,-53.56,-55.11
2022/04/18 02:06:13+0000,-35.00,-46.52,-32.49,-46.92,-53.09,-55.03
2022/04/18 02:07:06+0000,-33.31,-47.38,-31.90,-46.35,-54.08,-54.63
2022/04/18 02:07:58+0000,-33.69,-46.38,-32.28,-46.50,-53.70,-54.84
2022/04/18 02:08:50+0000,-33.37,-47.77,-31.78,-46.68,-54.15,-54.53
2022/04/18 02:09:42+0000,-31.62,-46.20,-32.45,-46.84,-52.74,-54.82
2022/04/18 02:10:34+0000,-34.28,-46.17,-32.04,-47.92,-53.24,-54.95
2022/04/18 02:11:37+0000,-34.22,-44.61,-32.34,-46.35,-53.86,-54.28
2022/04/18 02:12:29+0000,-33.53,-46.56,-32.86,-46.81,-53.56,-54.50
2022/04/18 02:13:21+0000,-33.46,-46.76,-31.82,-47.59,-53.65,-54.62
2022/04/18 02:14:13+0000,-34.03,-46.17,-32.49,-47.41,-53.38,-54.54
2022/04/18 02:15:05+0000,-34.71,-47.36,-32.48,-46.92,-53.61,-54.56
2022/04/18 02:15:57+0000,-34.02,-45.08,-32.52,-46.58,-53.28,-55.69
2022/04/18 02:16:49+0000,-34.26,-45.31,-31.80,-46.43,-49.96,-53.63
2022/04/18 02:17:41+0000,-33.78,-46.40,-32.41,-46.12,-50.43,-53.55
2022/04/18 02:18:33+0000,-33.07,-44.98,-32.25,-47.20,-49.62,-53.17
2022/04/18 02:19:25+0000,-31.67,-45.46,-31.55,-47.13,-49.80,-53.45
2022/04/18 02:20:18+0000,-32.68,-45.44,-31.74,-46.90,-49.88,-53.40
2022/04/18 02:21:23+0000,-33.01,-45.22,-32.26,-46.56,-50.00,-54.50
2022/04/18 02:22:15+0000,-33.60,-45.34,-31.85,-47.00,-51.59,-53.26
2022/04/18 02:23:07+0000,-32.31,-45.35,-32.09,-46.28,-50.91,-53.65
2022/04/18 02:23:59+0000,-33.45,-44.54,-32.13,-46.19,-51.12,-53.93
2022/04/18 02:24:51+0000,-33.51,-47.12,-32.48,-46.33,-49.54,-53.59
2022/04/18 02:25:43+0000,-34.03,-43.00,-33.13,-47.27,-49.66,-53.36
2022/04/18 02:26:35+0000,-33.41,-45.03,-32.55,-46.96,-49.61,-52.84
2022/04/18 02:27:27+0000,-33.85,-45.73,-32.51,-46.92,-51.21,-53.25
2022/04/18 02:28:19+0000,-33.52,-45.51,-31.83,-47.22,-51.35,-53.14
2022/04/18 02:29:11+0000,-33.44,-45.43,-32.32,-46.29,-50.84,-53.31
2022/04/18 02:30:03+0000,-34.43,-43.97,-32.80,-47.43,-49.32,-53.42
2022/04/18 02:31:04+0000,-33.18,-44.91,-32.70,-46.66,-49.34,-53.32
2022/04/18 02:31:56+0000,-33.52,-45.24,-32.61,-46.20,-50.04,-53.32
2022/04/18 02:32:48+0000,-33.48,-45.11,-32.03,-46.35,-49.50,-54.60
2022/04/18 02:33:40+0000,-34.48,-44.10,-32.42,-46.56,-50.57,-53.51
2022/04/18 02:34:32+0000,-31.76,-44.66,-32.40,-45.72,-50.34,-53.53
2022/04/18 02:35:24+0000,-33.35,-46.18,-32.48,-45.86,-49.99,-53.40
2022/04/18 02:36:16+0000,-33.02,-45.65,-32.31,-46.42,-51.00,-53.86
2022/04/18 02:37:08+0000,-34.48,-45.84,-32.11,-47.19,-51.08,-53.96
2022/04/18 02:38:00+0000,-33.13,-45.48,-32.45,-45.55,-51.06,-53.54
2022/04/18 02:38:52+0000,-32.16,-46.27,-31.75,-46.53,-50.57,-52.94
2022/04/18 02:39:44+0000,-33.37,-44.99,-31.86,-45.95,-50.66,-53.39
2022/04/18 02:40:36+0000,-32.17,-46.55,-32.53,-45.90,-50.44,-53.45
2022/04/18 02:41:37+0000,-34.03,-45.56,-31.45,-46.00,-51.85,-52.72
2022/04/18 02:42:29+0000,-34.63,-45.21,-32.62,-45.22,-50.91,-53.81
2022/04/18 02:43:21+0000,-32.44,-46.05,-32.64,-47.07,-50.99,-54.02
2022/04/18 02:44:13+0000,-32.48,-43.96,-33.14,-47.32,-50.29,-53.97
2022/04/18 02:45:05+0000,-33.15,-44.02,-32.65,-46.72,-50.72,-53.76
2022/04/18 02:45:57+0000,-33.50,-45.08,-32.14,-45.96,-51.40,-54.27
2022/04/18 02:46:49+0000,-34.08,-45.92,-32.32,-46.83,-50.95,-53.69
2022/04/18 02:47:41+0000,-33.55,-46.20,-32.21,-45.93,-49.83,-54.03
2022/04/18 02:48:33+0000,-32.27,-46.24,-32.59,-44.73,-51.14,-53.42
2022/04/18 02:49:25+0000,-33.57,-45.52,-32.44,-45.46,-50.51,-53.31
2022/04/18 02:50:17+0000,-33.87,-45.11,-32.44,-46.15,-50.95,-52.83
2022/04/18 02:51:18+0000,-33.90,-44.92,-31.82,-45.50,-51.75,-54.13
2022/04/18 02:52:10+0000,-33.10,-45.46,-31.95,-46.15,-50.63,-53.01
2022/04/18 02:53:02+0000,-32.34,-46.76,-32.44,-45.06,-50.47,-53.18
2022/04/18 02:53:54+0000,-34.17,-46.38,-32.26,-45.20,-49.94,-53.65
2022/04/18 02:54:46+0000,-32.40,-45.98,-32.38,-44.81,-50.34,-53.52
2022/04/18 02:55:38+0000,-33.13,-46.64,-32.69,-46.45,-50.27,-54.36
2022/04/18 02:56:30+0000,-33.04,-46.22,-32.04,-46.21,-51.36,-54.03
2022/04/18 02:57:22+0000,-33.80,-45.86,-32.35,-46.03,-51.66,-53.57
2022/04/18 02:58:14+0000,-33.98,-45.96,-32.56,-45.77,-52.22,-53.87
2022/04/18 02:59:06+0000,-33.12,-46.04,-33.06,-46.99,-51.64,-53.40
2022/04/18 02:59:58+0000,-30.70,-44.86,-32.30,-46.08,-51.36,-53.38
2022/04/18 03:00:50+0000,-34.22,-45.54,-32.67,-47.14,-51.21,-53.11
2022/04/18 03:01:54+0000,-32.21,-44.92,-32.52,-46.33,-51.05,-54.00
2022/04/18 03:02:46+0000,-31.59,-44.97,-32.00,-47.10,-51.13,-53.41
2022/04/18 03:03:38+0000,-33.56,-43.10,-32.79,-47.87,-50.16,-53.33
2022/04/18 03:04:30+0000,-32.10,-45.96,-32.70,-46.21,-50.66,-53.28
2022/04/18 03:05:22+0000,-34.11,-45.65,-32.30,-46.66,-51.16,-53.12
2022/04/18 03:06:14+0000,-33.23,-44.50,-32.08,-46.57,-50.54,-53.28
2022/04/18 03:07:06+0000,-33.00,-47.16,-32.21,-46.93,-51.35,-53.27
2022/04/18 03:07:58+0000,-33.34,-43.69,-31.92,-47.04,-50.42,-53.32
2022/04/18 03:08:50+0000,-33.32,-45.08,-31.94,-47.22,-50.66,-52.97
2022/04/18 03:09:42+0000,-33.30,-44.50,-32.45,-47.81,-51.28,-53.27
2022/04/18 03:10:34+0000,-34.08,-44.01,-31.92,-48.28,-51.08,-53.33
2022/04/18 03:11:35+0000,-33.36,-45.11,-31.75,-48.72,-50.91,-52.80
2022/04/18 03:12:27+0000,-32.97,-44.92,-32.16,-47.43,-51.17,-52.84
2022/04/18 03:13:19+0000,-34.78,-43.61,-32.45,-48.97,-51.62,-53.31
2022/04/18 03:14:11+0000,-32.07,-45.17,-33.00,-47.24,-51.39,-53.11
2022/04/18 03:15:03+0000,-34.58,-44.04,-32.24,-49.07,-50.49,-53.13
2022/04/18 03:15:55+0000,-33.79,-45.62,-32.93,-47.95,-50.61,-53.63
2022/04/18 03:16:47+0000,-34.24,-44.43,-32.38,-48.60,-50.32,-52.89
2022/04/18 03:17:39+0000,-33.72,-44.65,-32.34,-47.72,-50.28,-53.53
2022/04/18 03:18:31+0000,-34.24,-43.60,-32.42,-47.04,-47.82,-53.55
2022/04/18 03:19:23+0000,-33.83,-42.51,-32.67,-48.04,-48.85,-53.63
2022/04/18 03:20:15+0000,-33.91,-44.10,-31.99,-48.17,-51.13,-53.70
2022/04/18 03:21:16+0000,-34.39,-43.15,-32.12,-48.06,-50.68,-53.69
2022/04/18 03:22:08+0000,-34.29,-44.32,-31.77,-48.67,-50.10,-53.17
2022/04/18 03:23:00+0000,-34.29,-45.63,-31.59,-48.91,-50.88,-53.63
2022/04/18 03:23:52+0000,-34.47,-46.60,-31.75,-48.23,-49.80,-53.16
2022/04/18 03:24:44+0000,-33.75,-45.26,-31.65,-49.28,-48.92,-52.93
2022/04/18 03:25:36+0000,-33.68,-44.51,-32.78,-49.01,-48.37,-53.87
2022/04/18 03:26:28+0000,-32.07,-43.93,-32.99,-48.34,-47.78,-53.93
2022/04/18 03:27:20+0000,-33.20,-46.07,-31.65,-48.79,-50.83,-54.11
2022/04/18 03:28:12+0000,-33.07,-44.47,-31.53,-48.37,-50.75,-54.08
2022/04/18 03:29:04+0000,-34.15,-44.84,-31.93,-48.37,-51.17,-53.57
2022/04/18 03:29:56+0000,-31.35,-44.53,-31.38,-48.43,-50.14,-53.01
2022/04/18 03:30:48+0000,-33.07,-43.36,-31.60,-49.46,-50.79,-53.60
2022/04/18 03:31:49+0000,-33.00,-44.50,-31.79,-48.43,-50.23,-53.40
2022/04/18 03:32:41+0000,-33.64,-44.56,-31.50,-47.70,-50.51,-54.13
2022/04/18 03:33:33+0000,-34.03,-44.95,-31.54,-49.16,-51.27,-53.23
2022/04/18 03:34:25+0000,-33.42,-44.77,-31.17,-47.55,-50.74,-53.49
2022/04/18 03:35:17+0000,-32.20,-43.22,-31.87,-48.32,-50.16,-53.61
2022/04/18 03:36:09+0000,-33.79,-44.43,-31.71,-48.48,-52.04,-53.48
2022/04/18 03:37:01+0000,-32.75,-45.27,-31.81,-48.01,-51.05,-52.93
2022/04/18 03:37:53+0000,-33.33,-44.74,-32.09,-48.56,-51.11,-53.71
2022/04/18 03:38:45+0000,-34.39,-44.58,-31.77,-48.84,-51.21,-54.14
2022/04/18 03:39:37+0000,-34.15,-47.17,-32.56,-48.79,-50.11,-54.49
2022/04/18 03:40:29+0000,-33.35,-44.65,-32.14,-48.82,-51.65,-53.79
2022/04/18 03:41:30+0000,-33.20,-45.10,-32.28,-48.14,-51.32,-53.60
2022/04/18 03:42:22+0000,-33.46,-45.56,-31.94,-48.55,-51.32,-54.03
2022/04/18 03:43:14+0000,-34.26,-45.78,-32.67,-49.14,-49.86,-53.66
2022/04/18 03:44:06+0000,-32.14,-47.30,-31.50,-48.02,-50.84,-53.21
2022/04/18 03:44:58+0000,-33.23,-45.33,-31.79,-48.29,-51.62,-53.73
2022/04/18 03:45:50+0000,-33.28,-43.91,-31.78,-48.44,-50.50,-53.53
2022/04/18 03:46:42+0000,-34.13,-41.98,-31.99,-48.22,-50.85,-53.72
2022/04/18 03:47:34+0000,-33.23,-42.88,-31.27,-48.30,-51.28,-53.00
2022/04/18 03:48:26+0000,-32.79,-44.63,-31.20,-48.55,-51.06,-53.73
2022/04/18 03:49:18+0000,-33.75,-42.98,-31.09,-48.31,-51.35,-53.80
2022/04/18 03:50:10+0000,-34.41,-42.93,-31.10,-47.68,-51.86,-53.27
2022/04/18 03:51:10+0000,-32.10,-42.54,-30.96,-47.73,-50.67,-53.18
2022/04/18 03:52:02+0000,-32.77,-44.75,-31.65,-48.84,-51.22,-54.05
2022/04/18 03:52:55+0000,-32.60,-45.03,-31.82,-47.64,-50.79,-53.24
2022/04/18 03:53:47+0000,-33.31,-43.48,-32.06,-47.72,-51.01,-52.90
2022/04/18 03:54:39+0000,-34.14,-42.74,-31.01,-48.93,-50.14,-53.69
2022/04/18 03:55:31+0000,-32.51,-42.14,-32.29,-49.42,-49.98,-53.61
2022/04/18 03:56:23+0000,-33.46,-44.10,-32.43,-47.39,-49.57,-53.29
2022/04/18 03:57:15+0000,-32.81,-42.08,-32.69,-48.56,-50.13,-53.12
2022/04/18 03:58:07+0000,-32.91,-45.03,-32.47,-49.17,-50.18,-53.81
2022/04/18 03:58:59+0000,-33.64,-43.58,-32.61,-48.62,-50.88,-53.75
2022/04/18 03:59:51+0000,-33.41,-42.80,-32.61,-48.78,-50.32,-53.70
2022/04/18 04:00:43+0000,-33.26,-42.97,-32.73,-48.83,-49.95,-53.47
2022/04/18 04:01:43+0000,-33.20,-42.54,-31.70,-48.67,-50.54,-53.85
2022/04/18 04:02:35+0000,-33.23,-45.89,-31.34,-49.53,-50.49,-54.44
2022/04/18 04:03:27+0000,-33.20,-42.48,-32.00,-48.30,-50.24,-53.86
2022/04/18 04:04:19+0000,-32.12,-42.34,-31.85,-49.16,-49.56,-53.40
2022/04/18 04:05:11+0000,-32.85,-43.40,-32.20,-48.20,-50.21,-53.95
2022/04/18 04:06:03+0000,-34.48,-44.18,-32.34,-48.70,-50.29,-53.77
2022/04/18 04:06:55+0000,-33.32,-44.64,-32.10,-48.20,-50.10,-53.63
2022/04/18 04:07:47+0000,-34.14,-43.49,-32.25,-48.90,-50.09,-54.13
2022/04/18 04:08:39+0000,-31.88,-43.19,-31.80,-48.55,-50.25,-53.67
2022/04/18 04:09:31+0000,-33.12,-44.21,-31.71,-47.81,-49.90,-53.73
2022/04/18 04:10:23+0000,-33.47,-43.66,-31.70,-48.64,-50.17,-53.34
2022/04/18 04:11:23+0000,-32.87,-45.40,-32.38,-48.57,-49.90,-54.08
2022/04/18 04:12:15+0000,-34.40,-40.95,-32.24,-48.31,-49.95,-53.55
2022/04/18 04:13:07+0000,-33.82,-44.68,-31.73,-48.48,-49.92,-54.34
2022/04/18 04:13:59+0000,-33.94,-43.84,-33.03,-49.26,-49.64,-53.69
2022/04/18 04:14:51+0000,-33.80,-44.99,-32.40,-48.65,-49.92,-53.88
2022/04/18 04:15:43+0000,-32.75,-42.35,-32.88,-46.02,-50.52,-54.13
2022/04/18 04:16:35+0000,-33.35,-44.93,-32.35,-48.64,-50.60,-53.78
2022/04/18 04:17:27+0000,-33.77,-44.38,-32.69,-47.17,-51.05,-53.97
2022/04/18 04:18:19+0000,-33.10,-44.01,-32.97,-48.79,-50.75,-53.69
2022/04/18 04:19:11+0000,-33.60,-42.29,-32.17,-47.47,-49.74,-53.43
2022/04/18 04:20:03+0000,-33.84,-42.63,-32.28,-49.42,-49.81,-53.53
2022/04/18 04:21:03+0000,-32.77,-41.06,-32.41,-48.57,-50.27,-53.78
2022/04/18 04:21:55+0000,-31.94,-42.21,-32.86,-48.96,-50.03,-53.66
2022/04/18 04:22:48+0000,-32.64,-41.51,-32.38,-48.83,-49.96,-53.83
2022/04/18 04:23:40+0000,-32.15,-42.14,-32.52,-48.69,-49.19,-53.57
2022/04/18 04:24:32+0000,-31.54,-41.22,-32.70,-48.87,-49.71,-53.50
2022/04/18 04:25:24+0000,-32.25,-43.01,-32.83,-50.24,-48.84,-53.92
2022/04/18 04:26:16+0000,-32.83,-40.84,-32.46,-49.63,-49.41,-53.73
2022/04/18 04:27:08+0000,-32.89,-40.68,-32.99,-49.51,-50.14,-53.53
2022/04/18 04:28:00+0000,-31.66,-42.81,-32.61,-48.91,-49.10,-53.83
2022/04/18 04:28:52+0000,-32.05,-41.49,-33.38,-49.90,-49.29,-54.18
2022/04/18 04:29:44+0000,-32.23,-42.18,-33.14,-48.73,-49.87,-54.01
2022/04/18 04:30:36+0000,-33.15,-42.33,-32.08,-49.06,-49.65,-53.27
2022/04/18 04:31:36+0000,-26.84,-46.71,-32.30,-49.18,-50.25,-53.52
2022/04/18 04:32:28+0000,-28.03,-45.32,-32.27,-48.18,-50.37,-53.25
2022/04/18 04:33:20+0000,-29.21,-43.96,-32.41,-49.91,-49.99,-52.68
2022/04/18 04:34:12+0000,-29.16,-43.44,-31.68,-49.15,-49.69,-53.05
2022/04/18 04:35:04+0000,-28.34,-43.85,-32.68,-49.61,-50.35,-52.36
2022/04/18 04:35:56+0000,-26.18,-44.70,-32.28,-49.13,-49.88,-52.98
2022/04/18 04:36:48+0000,-29.68,-45.01,-31.99,-49.10,-49.14,-52.64
2022/04/18 04:37:40+0000,-28.96,-43.38,-32.01,-49.56,-49.18,-52.31
2022/04/18 04:38:32+0000,-25.65,-44.20,-32.55,-49.23,-48.77,-52.77
2022/04/18 04:39:24+0000,-25.55,-44.32,-32.50,-49.46,-49.15,-52.63
2022/04/18 04:40:17+0000,-27.56,-44.80,-31.62,-48.60,-50.01,-52.49
2022/04/18 04:41:17+0000,-28.04,-45.29,-31.74,-48.63,-49.67,-52.13
2022/04/18 04:42:09+0000,-29.07,-44.65,-31.94,-48.09,-49.89,-52.05
2022/04/18 04:43:01+0000,-28.79,-45.92,-31.46,-48.76,-49.43,-52.27
2022/04/18 04:43:53+0000,-28.34,-45.13,-32.29,-49.05,-48.84,-52.45
2022/04/18 04:44:45+0000,-28.38,-43.13,-32.45,-49.19,-48.30,-52.54